KQA109 HKJK-HRYR

Flight info

Callsign KQA109
Flight time 0h 59m
Altitude 38000
Route ANTUK2D APLOG UL442 BOSAD BOSAD2A
Aircraft B789/H-SDE1E2E3FGHIJ2J3J4J5M1RWXY/LB1D1

Departure

Time 2026-04-26 13:51
Airport Jomo Kenyatta International Airport (HKJK)

Arrival

Time 2026-04-26 14:51
Airport Kigali International Airport (HRYR)
Time Latitude Longitude Altitude Speed Heading
2026-04-26 12:56 -1.32950 36.92335 5330 ft 0 kts 122°
2026-04-26 13:42 -1.32940 36.92320 5330 ft 4 kts 122°
2026-04-26 13:42 -1.32925 36.92297 5336 ft 3 kts 122°
2026-04-26 13:43 -1.32915 36.92278 5333 ft 4 kts 100°
2026-04-26 13:43 -1.32918 36.92254 5334 ft 4 kts 52°
2026-04-26 13:43 -1.32937 36.92240 5330 ft 4 kts 20°
2026-04-26 13:43 -1.32961 36.92231 5330 ft 1 kts 20°
2026-04-26 13:44 -1.32962 36.92231 5330 ft 0 kts 20°
2026-04-26 13:45 -1.32953 36.92234 5334 ft 4 kts 20°
2026-04-26 13:46 -1.32917 36.92252 5334 ft 8 kts 25°
2026-04-26 13:46 -1.32851 36.92246 5335 ft 12 kts 331°
2026-04-26 13:46 -1.32792 36.92184 5336 ft 12 kts 282°
2026-04-26 13:46 -1.32820 36.92111 5338 ft 13 kts 235°
2026-04-26 13:47 -1.32881 36.92028 5339 ft 17 kts 234°
2026-04-26 13:47 -1.32957 36.91922 5338 ft 20 kts 234°
2026-04-26 13:47 -1.32989 36.91819 5342 ft 8 kts 305°
2026-04-26 13:47 -1.32946 36.91784 5344 ft 10 kts 323°
2026-04-26 13:48 -1.32875 36.91733 5341 ft 14 kts 325°
2026-04-26 13:48 -1.32793 36.91675 5344 ft 14 kts 328°
2026-04-26 13:48 -1.32724 36.91688 5342 ft 10 kts 40°
2026-04-26 13:48 -1.32700 36.91718 5340 ft 0 kts 54°
2026-04-26 13:49 -1.32693 36.91728 5338 ft 10 kts 54°
2026-04-26 13:50 -1.32554 36.91920 5335 ft 59 kts 54°
2026-04-26 13:50 -1.32210 36.92389 5325 ft 106 kts 54°
2026-04-26 13:50 -1.31696 36.93091 5306 ft 144 kts 54°
2026-04-26 13:50 -1.31037 36.93994 5296 ft 177 kts 54°
2026-04-26 13:51 -1.30325 36.94979 5811 ft 167 kts 56°
2026-04-26 13:51 -1.29735 36.96071 5822 ft 200 kts 82°
2026-04-26 13:51 -1.30156 36.97437 6068 ft 218 kts 133°
2026-04-26 13:51 -1.31522 36.98150 6649 ft 239 kts 170°
2026-04-26 13:52 -1.33242 36.97847 6951 ft 270 kts 207°
2026-04-26 13:52 -1.34700 36.96551 7343 ft 293 kts 238°
2026-04-26 13:52 -1.35398 36.94646 8179 ft 296 kts 263°
2026-04-26 13:52 -1.35554 36.92585 9015 ft 298 kts 265°
2026-04-26 13:53 -1.35680 36.90515 9827 ft 302 kts 265°
2026-04-26 13:53 -1.35831 36.88346 10011 ft 327 kts 265°
2026-04-26 13:53 -1.36012 36.85984 10012 ft 353 kts 265°
2026-04-26 13:53 -1.36199 36.83500 10005 ft 361 kts 265°
2026-04-26 13:54 -1.36380 36.80982 10140 ft 367 kts 265°
2026-04-26 13:54 -1.36562 36.78453 10997 ft 365 kts 265°
2026-04-26 13:54 -1.36753 36.75911 11686 ft 367 kts 265°
2026-04-26 13:55 -1.37132 36.70755 13012 ft 375 kts 266°
2026-04-26 13:55 -1.37255 36.69028 13423 ft 380 kts 266°
2026-04-26 13:55 -1.37713 36.62838 14991 ft 389 kts 266°
2026-04-26 13:56 -1.37913 36.60130 15577 ft 392 kts 266°
2026-04-26 13:56 -1.38111 36.57399 16130 ft 396 kts 266°
2026-04-26 13:56 -1.38312 36.54637 16658 ft 400 kts 266°
2026-04-26 13:56 -1.38518 36.51851 17170 ft 404 kts 266°
2026-04-26 13:57 -1.38724 36.49042 17670 ft 407 kts 266°
2026-04-26 13:57 -1.38932 36.46209 18135 ft 411 kts 266°
2026-04-26 13:57 -1.39141 36.43351 18596 ft 414 kts 266°
2026-04-26 13:57 -1.39352 36.40471 19062 ft 417 kts 266°
2026-04-26 13:58 -1.39564 36.37571 19513 ft 420 kts 266°
2026-04-26 13:58 -1.39779 36.34650 19960 ft 423 kts 266°
2026-04-26 13:58 -1.39994 36.31710 20396 ft 426 kts 266°
2026-04-26 13:58 -1.40210 36.28747 20823 ft 429 kts 267°
2026-04-26 13:59 -1.40430 36.25763 21242 ft 431 kts 267°
2026-04-26 13:59 -1.40648 36.22767 21614 ft 434 kts 267°
2026-04-26 13:59 -1.40869 36.19749 21956 ft 437 kts 267°
2026-04-26 14:00 -1.41539 36.10594 22982 ft 444 kts 267°
2026-04-26 14:00 -1.41764 36.07513 23302 ft 446 kts 267°
2026-04-26 14:00 -1.41914 36.05469 23472 ft 447 kts 267°
2026-04-26 14:01 -1.42221 36.01306 23883 ft 450 kts 267°
2026-04-26 14:01 -1.42444 35.98178 24170 ft 451 kts 267°
2026-04-26 14:01 -1.42676 35.95043 24388 ft 454 kts 267°
2026-04-26 14:01 -1.42902 35.91900 24607 ft 455 kts 267°
2026-04-26 14:02 -1.43134 35.88736 24867 ft 457 kts 267°
2026-04-26 14:02 -1.43374 35.85558 25138 ft 459 kts 267°
2026-04-26 14:02 -1.43606 35.82372 25372 ft 461 kts 267°
2026-04-26 14:02 -1.43835 35.79167 25610 ft 463 kts 267°
2026-04-26 14:03 -1.44070 35.75952 25868 ft 465 kts 267°
2026-04-26 14:03 -1.44307 35.72722 26127 ft 467 kts 267°
2026-04-26 14:03 -1.44545 35.69481 26375 ft 469 kts 267°
2026-04-26 14:03 -1.44781 35.66225 26631 ft 471 kts 267°
2026-04-26 14:04 -1.45019 35.62956 26891 ft 472 kts 267°
2026-04-26 14:04 -1.45255 35.59720 27119 ft 475 kts 267°
2026-04-26 14:04 -1.45496 35.56427 27371 ft 476 kts 267°
2026-04-26 14:04 -1.45737 35.53119 27619 ft 478 kts 267°
2026-04-26 14:05 -1.45980 35.49801 27853 ft 480 kts 267°
2026-04-26 14:05 -1.46222 35.46469 28095 ft 482 kts 267°
2026-04-26 14:05 -1.46464 35.43126 28347 ft 483 kts 267°
2026-04-26 14:05 -1.46710 35.39770 28609 ft 485 kts 267°
2026-04-26 14:06 -1.46954 35.36408 28858 ft 487 kts 267°
2026-04-26 14:06 -1.47201 35.33025 29088 ft 489 kts 267°
2026-04-26 14:06 -1.47448 35.29633 29344 ft 491 kts 267°
2026-04-26 14:06 -1.47696 35.26227 29572 ft 492 kts 267°
2026-04-26 14:07 -1.47945 35.22807 29808 ft 494 kts 267°
2026-04-26 14:07 -1.48194 35.19381 30051 ft 495 kts 267°
2026-04-26 14:07 -1.48445 35.15945 30295 ft 497 kts 267°
2026-04-26 14:07 -1.48693 35.12494 30505 ft 499 kts 267°
2026-04-26 14:08 -1.48945 35.09036 30746 ft 500 kts 267°
2026-04-26 14:08 -1.49200 35.05560 30972 ft 502 kts 267°
2026-04-26 14:08 -1.49453 35.02073 31164 ft 504 kts 267°
2026-04-26 14:08 -1.49706 34.98575 31405 ft 505 kts 267°
2026-04-26 14:09 -1.49961 34.95070 31623 ft 507 kts 267°
2026-04-26 14:09 -1.50231 34.91549 31828 ft 508 kts 264°
2026-04-26 14:09 -1.50620 34.88033 32007 ft 510 kts 265°
2026-04-26 14:09 -1.50942 34.84499 32222 ft 511 kts 266°
2026-04-26 14:10 -1.51269 34.80951 32403 ft 513 kts 265°
2026-04-26 14:10 -1.51637 34.77404 32629 ft 514 kts 265°
2026-04-26 14:10 -1.52010 34.73842 32816 ft 516 kts 265°
2026-04-26 14:10 -1.52360 34.70273 33049 ft 516 kts 265°
2026-04-26 14:11 -1.53060 34.63147 33627 ft 515 kts 265°
2026-04-26 14:11 -1.53422 34.59588 33903 ft 514 kts 265°
2026-04-26 14:11 -1.53776 34.56035 34224 ft 513 kts 265°
2026-04-26 14:12 -1.54126 34.52492 34498 ft 512 kts 265°
2026-04-26 14:12 -1.54479 34.48955 34751 ft 512 kts 265°
2026-04-26 14:12 -1.54830 34.45465 35000 ft 511 kts 265°
2026-04-26 14:12 -1.55184 34.41931 35281 ft 510 kts 265°
2026-04-26 14:13 -1.55886 34.34881 35782 ft 510 kts 265°
2026-04-26 14:13 -1.56238 34.31359 36059 ft 509 kts 265°
2026-04-26 14:13 -1.56589 34.27842 36299 ft 508 kts 265°
2026-04-26 14:14 -1.56939 34.24327 36520 ft 508 kts 265°
2026-04-26 14:14 -1.57289 34.20814 36732 ft 508 kts 266°
2026-04-26 14:14 -1.57634 34.17304 37010 ft 506 kts 266°
2026-04-26 14:14 -1.57976 34.13814 37349 ft 503 kts 266°
2026-04-26 14:15 -1.58318 34.10346 37630 ft 500 kts 266°
2026-04-26 14:15 -1.58660 34.06895 37877 ft 499 kts 266°
2026-04-26 14:15 -1.59000 34.03444 38052 ft 499 kts 266°
2026-04-26 14:16 -1.59679 33.96514 38069 ft 501 kts 266°
2026-04-26 14:16 -1.60354 33.89609 38067 ft 498 kts 266°
2026-04-26 14:17 -1.61028 33.82733 38065 ft 497 kts 266°
2026-04-26 14:17 -1.61699 33.75861 38069 ft 497 kts 266°
2026-04-26 14:18 -1.62259 33.70151 38065 ft 497 kts 266°
2026-04-26 14:18 -1.62930 33.63276 38066 ft 497 kts 266°
2026-04-26 14:19 -1.63604 33.56387 38068 ft 498 kts 266°
2026-04-26 14:19 -1.64276 33.49491 38081 ft 499 kts 266°
2026-04-26 14:20 -1.64941 33.42590 38085 ft 498 kts 266°
2026-04-26 14:20 -1.65607 33.35714 38080 ft 497 kts 266°
2026-04-26 14:21 -1.66271 33.28851 38000 ft 497 kts 266°
2026-04-26 14:21 -1.66601 33.25439 38048 ft 486 kts 266°
2026-04-26 14:21 -1.66924 33.22108 38070 ft 480 kts 266°
2026-04-26 14:22 -1.67570 33.15404 38078 ft 489 kts 266°
2026-04-26 14:22 -1.68228 33.08591 38085 ft 496 kts 265°
2026-04-26 14:23 -1.68894 33.01715 38099 ft 497 kts 265°
2026-04-26 14:23 -1.69531 32.95109 38098 ft 497 kts 265°
2026-04-26 14:24 -1.70194 32.88243 38099 ft 496 kts 265°
2026-04-26 14:24 -1.70525 32.84820 36542 ft 494 kts 266°
2026-04-26 14:24 -1.70854 32.81402 38090 ft 495 kts 266°
2026-04-26 14:25 -1.71509 32.74617 37915 ft 494 kts 268°
2026-04-26 14:25 -1.71838 32.71168 37776 ft 503 kts 268°
2026-04-26 14:25 -1.72175 32.67669 37755 ft 508 kts 268°
2026-04-26 14:26 -1.72867 32.60569 37760 ft 518 kts 268°
2026-04-26 14:26 -1.73604 32.53352 37760 ft 524 kts 267°
2026-04-26 14:27 -1.74327 32.46102 37754 ft 524 kts 268°
2026-04-26 14:27 -1.75051 32.38913 37757 ft 523 kts 267°
2026-04-26 14:28 -1.75775 32.31692 37757 ft 522 kts 268°
2026-04-26 14:28 -1.76499 32.24475 37756 ft 521 kts 268°
2026-04-26 14:29 -1.77222 32.17269 37755 ft 521 kts 268°
2026-04-26 14:29 -1.77944 32.10069 37753 ft 520 kts 268°
2026-04-26 14:30 -1.78665 32.02873 37752 ft 520 kts 268°
2026-04-26 14:30 -1.79385 31.95685 37018 ft 522 kts 268°
2026-04-26 14:30 -1.79746 31.92078 36392 ft 520 kts 268°
2026-04-26 14:31 -1.80106 31.88484 35759 ft 519 kts 268°
2026-04-26 14:31 -1.80465 31.84899 35097 ft 518 kts 268°
2026-04-26 14:31 -1.80818 31.81367 34420 ft 517 kts 268°
2026-04-26 14:31 -1.81181 31.77745 33707 ft 517 kts 268°
2026-04-26 14:32 -1.81534 31.74218 32973 ft 517 kts 268°
2026-04-26 14:32 -1.81891 31.70642 32227 ft 518 kts 268°
2026-04-26 14:32 -1.82248 31.67050 31448 ft 522 kts 266°
2026-04-26 14:32 -1.82611 31.63405 30610 ft 531 kts 266°
2026-04-26 14:33 -1.82980 31.59724 29807 ft 532 kts 265°
2026-04-26 14:33 -1.83348 31.56052 29002 ft 530 kts 263°
2026-04-26 14:33 -1.83713 31.52394 28201 ft 527 kts 262°
2026-04-26 14:33 -1.84077 31.48759 27414 ft 524 kts 262°
2026-04-26 14:34 -1.84434 31.45171 26629 ft 510 kts 261°
2026-04-26 14:34 -1.84776 31.41718 25882 ft 488 kts 261°
2026-04-26 14:34 -1.85106 31.38414 25172 ft 468 kts 261°
2026-04-26 14:34 -1.85423 31.35247 24484 ft 449 kts 260°
2026-04-26 14:35 -1.85733 31.32168 23838 ft 447 kts 260°
2026-04-26 14:35 -1.86046 31.29076 23169 ft 445 kts 261°
2026-04-26 14:35 -1.86348 31.26024 22514 ft 438 kts 261°
2026-04-26 14:35 -1.86644 31.23021 21874 ft 431 kts 261°
2026-04-26 14:36 -1.86940 31.20066 21243 ft 423 kts 261°
2026-04-26 14:36 -1.87232 31.17165 20622 ft 416 kts 261°
2026-04-26 14:36 -1.87517 31.14322 20011 ft 407 kts 263°
2026-04-26 14:36 -1.87795 31.11530 19421 ft 399 kts 264°
2026-04-26 14:37 -1.88066 31.08798 18840 ft 391 kts 264°
2026-04-26 14:37 -1.88332 31.06116 18267 ft 384 kts 264°
2026-04-26 14:37 -1.88596 31.03479 17713 ft 378 kts 264°
2026-04-26 14:37 -1.88855 31.00890 17119 ft 371 kts 265°
2026-04-26 14:38 -1.89102 30.98419 16494 ft 343 kts 265°
2026-04-26 14:38 -1.89327 30.96164 16244 ft 308 kts 265°
2026-04-26 14:38 -1.89530 30.94117 16129 ft 293 kts 266°
2026-04-26 14:38 -1.89734 30.92042 16051 ft 305 kts 266°
2026-04-26 14:39 -1.89944 30.89923 15968 ft 305 kts 266°
2026-04-26 14:39 -1.90153 30.87844 15867 ft 298 kts 266°
2026-04-26 14:39 -1.90359 30.85774 15786 ft 301 kts 266°
2026-04-26 14:39 -1.90566 30.83677 15659 ft 306 kts 266°
2026-04-26 14:40 -1.90849 30.81586 15353 ft 301 kts 256°
2026-04-26 14:40 -1.91462 30.79588 15065 ft 302 kts 257°
2026-04-26 14:40 -1.92037 30.77551 14761 ft 306 kts 257°
2026-04-26 14:40 -1.92617 30.75504 14460 ft 304 kts 257°
2026-04-26 14:41 -1.93204 30.73492 14159 ft 302 kts 257°
2026-04-26 14:41 -1.93786 30.71497 13869 ft 305 kts 257°
2026-04-26 14:41 -1.94377 30.69453 13566 ft 307 kts 257°
2026-04-26 14:41 -1.94975 30.67384 13269 ft 312 kts 257°
2026-04-26 14:42 -1.95574 30.65321 12959 ft 306 kts 257°
2026-04-26 14:42 -1.96160 30.63305 12663 ft 298 kts 257°
2026-04-26 14:42 -1.96730 30.61336 12383 ft 292 kts 257°
2026-04-26 14:42 -1.97288 30.59408 12095 ft 286 kts 257°
2026-04-26 14:43 -1.97836 30.57517 11807 ft 280 kts 257°
2026-04-26 14:43 -1.98372 30.55665 11525 ft 274 kts 257°
2026-04-26 14:43 -1.98897 30.53854 11249 ft 269 kts 257°
2026-04-26 14:43 -1.99411 30.52080 10977 ft 262 kts 257°
2026-04-26 14:44 -1.99914 30.50339 10719 ft 261 kts 257°
2026-04-26 14:44 -2.00419 30.48593 10466 ft 262 kts 257°
2026-04-26 14:44 -2.00926 30.46841 10226 ft 262 kts 257°
2026-04-26 14:44 -2.01430 30.45104 10123 ft 260 kts 257°
2026-04-26 14:45 -2.01896 30.43355 10007 ft 259 kts 265°
2026-04-26 14:45 -2.01850 30.42151 9773 ft 257 kts 285°
2026-04-26 14:45 -2.01407 30.39842 9289 ft 252 kts 281°
2026-04-26 14:45 -2.01119 30.38138 8946 ft 245 kts 283°
2026-04-26 14:46 -2.00801 30.36502 8671 ft 234 kts 283°
2026-04-26 14:46 -2.00521 30.34931 8362 ft 225 kts 282°
2026-04-26 14:46 -2.00256 30.33412 8050 ft 219 kts 282°
2026-04-26 14:46 -1.99999 30.31936 7745 ft 212 kts 282°
2026-04-26 14:47 -1.99748 30.30494 7474 ft 208 kts 282°
2026-04-26 14:47 -1.99508 30.29105 7202 ft 198 kts 282°
2026-04-26 14:47 -1.99278 30.27780 6939 ft 189 kts 282°
2026-04-26 14:47 -1.99061 30.26521 6689 ft 177 kts 282°
2026-04-26 14:48 -1.98862 30.25373 6551 ft 155 kts 282°
2026-04-26 14:48 -1.98677 30.24305 6604 ft 165 kts 283°
2026-04-26 14:48 -1.98473 30.23142 6451 ft 171 kts 282°
2026-04-26 14:48 -1.98274 30.21997 6242 ft 165 kts 282°
2026-04-26 14:49 -1.98077 30.20873 6013 ft 163 kts 282°
2026-04-26 14:49 -1.97883 30.19758 5797 ft 163 kts 282°
2026-04-26 14:49 -1.97684 30.18641 5580 ft 163 kts 282°
2026-04-26 14:49 -1.97493 30.17520 5357 ft 164 kts 281°
2026-04-26 14:50 -1.97300 30.16391 5123 ft 165 kts 282°
2026-04-26 14:50 -1.97094 30.15262 4891 ft 163 kts 280°
2026-04-26 14:50 -1.96933 30.14330 4882 ft 104 kts 280°
2026-04-26 14:50 -1.96831 30.13758 4890 ft 72 kts 280°
2026-04-26 14:51 -1.96775 30.13431 4892 ft 29 kts 280°
2026-04-26 14:51 -1.96693 30.13352 4890 ft 11 kts 11°
2026-04-26 14:51 -1.96633 30.13377 4888 ft 6 kts 39°
2026-04-26 14:51 -1.96612 30.13405 4892 ft 4 kts 61°
2026-04-26 14:52 -1.96598 30.13430 4891 ft 4 kts 56°
2026-04-26 14:52 -1.96574 30.13438 4890 ft 5 kts 359°
2026-04-26 14:52 -1.96538 30.13421 4896 ft 0 kts 322°